RH
98 96 95 95 96 98 100 101 101 100 99 96 94 94 95 96 96 95 94 95 95 95 93 91 88 84 80 78 76 74 73 72 70 68 66 64 64 63 61 58 54 51 50 47 43 41 36 31 27 24 23 22 21 20 18 17 17 16 16 16 15 15 15
102 99 97 97 97 98 99 99 100 99 98 97 96 96 96 96 95 94 93 91 92 94 93 89 87 87 86 85 82 80 79 79 77 74 71 68 65 61 58 53 47 41 36 32 28 25 24 23 23 23 23 23 22 21 20 20 19 18 18 17 16 16 15
101 99 98 97 96 95 95 95 97 98 97 98 98 98 97 96 95 94 94 94 94 93 91 89 88 89 89 87 86 84 83 84 82 77 73 68 62 57 51 43 35 28 24 22 21 21 21 22 21 22 22 22 22 21 21 22 21 20 19 18 17 16 15
101 98 95 93 92 91 91 91 93 94 94 96 97 98 99 99 99 98 98 98 98 96 93 91 90 91 91 90 91 90 87 84 81 76 71 64 55 46 38 30 24 21 20 20 20 20 20 20 19 20 21 21 21 21 21 21 21 20 19 17 16 15 14
98 96 93 91 90 90 89 90 90 91 91 93 94 95 97 98 99 99 98 97 98 97 95 93 93 94 93 91 89 89 86 82 77 69 59 49 39 31 27 24 22 21 20 19 19 19 19 19 19 19 19 19 19 19 18 18 18 17 16 14 14 13 13
95 94 93 92 91 91 91 91 89 89 91 92 92 92 93 94 94 95 95 95 96 95 93 92 92 92 90 88 86 83 78 70 60 49 38 31 28 26 24 23 22 21 20 19 18 18 18 18 18 17 17 17 16 15 15 15 14 14 13 12 12 12 12
96 95 96 96 95 94 94 93 91 91 92 92 92 91 91 92 91 91 91 91 92 92 90 88 87 85 81 76 70 62 53 44 36 31 28 27 26 25 24 23 22 20 19 18 17 17 17 16 15 14 14 14 14 13 13 13 12 12 12 12 12 12 12
101 101 101 101 101 98 97 96 94 94 93 92 91 90 89 89 87 86 85 84 83 80 77 72 67 61 55 48 42 37 33 30 28 27 27 26 26 24 23 22 20 19 17 16 15 15 14 14 13 13 13 12 12 12 12 12 11 12 12 12 12 12 12
104 104 103 103 102 100 98 98 96 96 94 92 90 86 82 79 74 71 66 62 58 53 49 45 40 36 33 31 30 30 29 28 27 27 26 25 24 22 21 19 18 16 15 14 13 13 13 12 12 13 13 13 13 12 12 11 11 11 12 12 12 12 12
102 103 103 103 101 99 97 94 91 86 81 76 70 64 58 53 48 43 40 37 34 33 31 30 29 29 29 29 29 28 28 27 26 25 24 22 21 19 18 17 15 14 13 12 12 12 12 12 13 13 13 13 12 12 11 11 11 11 11 12 12 11 11
93 92 91 88 84 79 74 68 62 56 50 46 42 38 35 32 30 29 28 28 28 28 28 28 28 28 28 28 28 28 27 26 24 22 21 19 18 16 15 14 13 12 12 12 12 12 12 13 14 14 13 12 12 11 11 11 11 10 10 10 10 10 11
63 59 56 52 49 45 42 39 37 35 33 31 30 29 28 27 27 27 27 27 28 27 27 27 27 27 27 27 26 25 23 22 20 19 17 16 15 13 13 13 12 12 12 12 12 12 13 14 14 13 12 11 11 10 9 10 10 9 9 9 9 9 10
36 35 34 33 32 32 32 31 31 30 30 30 29 28 28 27 27 26 26 26 26 26 26 25 25 24 24 23 22 20 19 18 16 15 14 13 12 12 12 12 12 12 12 12 12 12 13 13 12 12 11 10 9 9 8 9 9 8 8 8 8 9 9
29 29 29 29 29 29 29 29 29 29 29 28 28 26 25 25 24 24 24 24 23 23 22 22 21 20 19 18 17 16 15 14 13 13 12 12 12 12 12 12 12 12 12 11 11 11 12 11 10 10 10 9 8 8 8 8 7 7 7 8 8 9 8
26 26 26 26 26 26 27 27 27 27 26 25 24 23 21 20 20 20 20 20 19 19 18 17 16 15 15 14 14 13 13 13 12 12 11 11 11 12 12 12 12 11 11 10 10 10 9 9 9 9 9 9 8 7 7 7 7 7 8 8 9 9 9
24 24 24 24 24 24 24 24 23 22 22 21 20 19 17 17 16 16 16 16 15 14 14 13 13 13 13 13 13 13 13 13 12 11 11 11 11 11 11 11 11 11 10 9 9 9 9 9 9 9 8 8 8 7 7 7 7 8 9 9 9 10 11
22 22 22 21 21 20 20 19 19 18 17 16 16 15 14 13 13 12 12 13 13 13 13 12 12 12 13 13 13 14 13 12 11 11 10 10 10 10 10 11 11 10 10 9 8 8 9 9 9 8 8 8 8 8 8 8 8 9 9 9 9 10 11
18 18 17 17 16 16 16 15 14 14 13 13 13 12 11 11 11 11 11 11 12 12 13 13 13 13 13 13 14 13 12 11 10 10 10 10 10 10 11 11 11 10 9 9 8 8 8 8 9 9 9 9 9 9 9 9 9 9 9 9 9 10 10
14 14 13 13 13 12 12 12 11 11 11 11 11 11 10 10 10 11 11 11 12 12 13 14 14 13 13 12 12 12 11 11 10 10 10 10 10 10 11 11 10 9 9 8 8 8 8 8 9 10 10 10 10 10 9 9 9 9 9 9 9 9 9
11 11 10 10 10 10 10 10 10 10 10 11 11 11 10 10 11 11 11 12 12 12 13 13 13 13 12 12 11 11 11 11 10 9 9 9 9 10 10 10 8 8 8 8 8 8 9 9 10 10 10 11 11 11 10 9 9 9 10 10 10 10 10
9 9 9 10 10 10 10 10 11 11 11 11 11 11 11 11 11 11 11 11 12 11 12 12 12 12 13 12 12 12 11 10 10 9 8 8 9 9 9 9 8 8 8 8 9 9 10 10 11 11 11 11 11 11 10 9 9 9 10 11 12 12 12
9 9 10 10 10 10 10 10 11 11 11 11 11 11 11 11 11 11 10 10 11 11 11 12 12 13 13 13 12 11 11 10 9 8 8 8 9 9 8 8 8 8 9 9 10 10 10 11 11 11 11 11 11 10 10 10 9 9 10 11 12 12 12
10 10 10 10 10 10 10 10 11 11 11 11 11 11 11 10 10 10 10 10 11 11 11 12 12 12 12 11 11 10 10 9 9 9 9 8 8 8 8 8 9 9 10 10 10 10 11 11 11 11 11 10 10 9 9 9 9 10 10 11 11 11 11
9 10 10 9 10 10 10 11 11 11 11 11 10 11 11 10 10 10 10 10 10 10 10 10 10 10 10 10 10 10 10 9 9 9 9 9 9 9 9 10 10 10 11 11 11 11 11 11 11 11 10 10 9 8 8 8 8 8 9 9 9 9 9
9 9 10 10 11 11 11 11 11 11 11 10 10 11 10 10 10 9 9 9 9 9 9 9 9 9 9 9 10 10 10 10 10 10 10 10 10 10 10 10 10 10 11 11 11 12 12 13 13 12 11 10 9 9 8 7 6 6 7 7 8 8 9
9 9 10 10 10 10 10 10 10 10 10 10 10 10 9 9 9 8 8 8 8 8 8 8 9 9 9 10 10 10 10 10 10 11 11 10 10 10 10 10 9 10 10 10 11 12 13 14 15 14 14 13 11 10 9 8 7 6 6 7 7 8 8
9 9 10 10 10 10 10 10 9 9 9 9 9 9 8 8 8 8 8 8 8 8 8 8 9 9 10 11 11 11 11 10 10 11 11 10 10 9 9 9 9 9 10 10 11 11 11 12 13 13 14 14 13 12 11 9 8 7 6 6 7 7 8
9 9 9 9 9 9 9 9 9 8 8 8 8 8 8 8 8 8 8 8 8 9 9 9 10 10 10 10 10 11 11 11 11 11 11 11 10 9 9 9 9 9 9 9 9 9 9 10 11 11 13 13 13 13 12 10 8 7 6 6 6 7 8
8 8 8 8 8 9 9 9 9 9 8 8 8 8 8 8 8 8 9 9 9 9 9 10 10 10 10 11 10 11 11 11 11 11 11 11 11 10 9 8 8 8 9 8 9 9 9 9 10 10 11 11 11 11 10 9 8 7 6 7 7 7 8
8 8 8 8 8 8 9 9 9 9 8 8 7 8 8 8 9 9 9 9 9 9 9 10 10 10 10 10 10 11 11 11 11 11 11 11 11 10 10 9 9 8 8 8 8 8 8 8 8 8 9 9 9 9 9 9 8 8 7 8 8 9 10
8 8 8 8 8 8 9 9 9 9 8 8 8 8 8 8 8 9 9 9 8 9 9 9 9 9 10 9 9 10 10 10 10 10 10 11 10 10 10 10 9 8 7 7 7 7 7 7 7 7 8 8 9 10 10 11 11 10 9 9 9 10 10
7 7 7 8 8 8 9 9 9 9 9 8 8 8 8 9 9 8 8 8 8 9 9 9 9 8 8 8 8 8 9 9 9 9 10 9 9 9 9 9 8 7 7 7 7 7 8 8 9 9 10 10 11 12 12 13 13 12 11 10 10 10 9
7 7 7 8 8 8 8 9 9 9 9 8 9 9 9 10 10 8 8 8 8 8 8 8 9 9 8 8 8 8 8 8 8 8 8 8 8 8 8 8 8 8 8 9 9 9 9 10 10 10 11 11 11 11 12 12 12 11 11 10 9 9 8
7 7 8 8 8 8 8 8 8 9 9 9 9 10 10 10 10 9 9 8 8 8 8 8 8 8 8 8 8 7 7 6 6 6 7 7 8 9 9 9 9 9 10 10 9 9 9 9 9 9 9 10 10 10 11 11 11 11 10 10 9 9 8
6 7 7 7 8 8 8 8 8 9 9 9 9 10 10 10 10 9 9 8 8 8 8 7 7 7 7 7 7 7 8 8 8 8 8 7 8 8 9 9 9 9 9 9 8 8 9 8 9 9 9 9 10 10 11 11 11 11 11 10 9 9 8
7 7 6 6 7 7 8 8 8 8 9 9 9 9 8 8 8 8 8 8 8 7 7 6 6 6 6 7 8 8 9 9 9 9 8 8 7 7 7 7 7 7 8 8 8 8 8 8 8 9 9 9 10 10 11 11 10 10 10 10 9 9 8
Wind_Speed
100 99 98 98 97 97 98 98 99 100 101 102 102 103 104 106 108 109 110 111 112 113 114 114 115 116 116 118 118 119 120 121 123 124 125 125 126 127 128 130 130 129 129 129 129 130 130 130 129 129 129 129 129 129 129 129 129 129 128 128 128 129 130
102 102 101 100 99 99 100 100 101 102 103 103 104 105 106 107 108 109 110 112 113 114 116 117 118 118 120 121 122 123 124 125 127 128 129 130 130 131 132 132 132 130 129 127 126 126 125 124 124 124 125 125 125 126 126 127 127 127 127 127 127 127 127
104 104 104 103 102 102 102 102 103 103 104 105 105 106 108 109 110 110 111 112 113 115 117 118 119 120 122 124 125 126 127 129 130 132 133 134 134 134 133 133 132 130 127 124 123 122 121 121 120 120 120 121 121 122 123 124 124 125 125 125 125 125 125
106 106 106 106 105 105 105 105 105 105 106 106 107 108 109 110 111 111 112 113 115 116 118 119 120 122 124 126 127 129 130 132 134 135 136 136 135 134 133 131 130 127 124 122 120 119 118 118 117 116 116 117 117 118 119 120 121 122 123 123 123 123 123
107 108 108 108 108 108 108 107 107 107 108 108 109 109 110 111 112 113 114 115 117 118 120 121 123 124 127 129 130 132 133 135 136 137 136 135 133 132 130 128 126 124 122 120 118 117 116 115 114 113 113 114 114 115 116 117 118 119 120 120 120 120 120
109 109 110 110 110 110 110 110 110 110 110 110 111 111 112 113 115 116 117 118 120 122 123 125 126 128 130 131 133 134 135 136 136 135 133 131 130 128 127 125 123 121 120 118 116 114 113 112 112 111 111 111 112 113 113 114 115 115 115 115 116 116 116
111 111 111 111 112 112 112 112 112 112 113 114 115 116 116 118 119 120 121 123 124 125 127 128 129 131 132 132 133 133 133 133 132 130 129 127 126 124 123 121 120 119 117 115 113 112 111 110 110 109 109 109 110 109 109 110 110 110 110 111 111 111 112
112 113 113 113 114 115 115 116 116 116 117 119 120 121 121 122 123 124 125 126 127 128 128 129 130 130 130 130 130 129 129 128 127 126 124 123 122 121 120 118 117 116 115 113 111 109 108 107 107 106 106 106 107 107 106 106 106 105 106 107 107 107 108
115 115 116 117 118 119 119 120 121 121 122 123 124 125 125 125 126 126 126 127 127 127 127 127 126 126 126 126 125 125 124 124 123 122 121 120 119 118 117 116 115 113 111 110 108 106 105 104 103 103 104 104 105 104 104 103 102 101 101 102 102 103 105
119 119 120 121 122 123 123 124 124 125 125 125 126 126 126 126 125 125 125 124 124 123 123 123 122 122 122 122 121 121 121 120 119 118 118 117 116 115 114 113 111 110 108 106 105 103 102 101 100 101 102 103 102 102 101 100 99 97 97 97 97 98 100
121 122 123 123 124 124 124 124 124 125 125 124 124 124 124 123 123 122 121 120 120 120 120 120 119 119 119 119 118 118 117 117 116 115 115 114 113 112 111 109 108 106 104 103 102 101 100 99 99 100 101 100 99 98 97 96 95 94 94 94 93 93 94
122 122 122 122 122 122 122 122 122 122 122 122 122 121 121 120 120 119 118 118 118 118 118 117 117 116 116 115 115 115 114 114 113 112 112 111 110 108 107 105 103 102 101 100 99 98 97 97 97 97 97 96 96 95 94 93 92 92 92 91 90 89 90
119 119 120 119 119 119 119 119 119 120 120 120 120 119 119 118 118 117 116 116 116 115 115 114 113 113 112 112 112 111 111 110 110 109 108 107 106 104 102 101 100 99 98 97 97 96 95 95 95 94 93 94 93 92 91 91 91 91 91 89 88 88 89
117 117 117 116 116 116 116 117 117 117 118 118 118 118 117 116 115 114 113 112 112 111 111 110 109 108 108 108 107 107 107 106 106 105 104 103 101 99 98 97 97 96 95 94 94 93 92 92 92 91 91 92 92 91 91 91 91 90 89 88 88 88 90
114 114 114 114 114 114 114 115 115 115 116 116 116 115 114 112 111 109 108 108 107 106 106 105 105 104 103 103 103 103 103 103 102 102 100 99 97 96 95 94 94 94 93 92 92 91 90 90 90 90 90 91 92 91 90 90 90 89 88 88 88 89 90
112 112 112 112 112 112 112 113 113 113 112 112 112 111 109 107 105 103 102 102 102 102 101 100 100 99 99 99 99 99 100 100 99 98 97 95 93 92 91 90 91 92 92 91 91 89 89 89 90 90 90 91 91 91 90 90 88 88 89 89 88 88 89
110 110 110 110 110 109 109 109 109 108 107 106 106 105 103 101 99 97 96 96 96 97 97 97 96 96 96 96 96 97 97 97 96 94 92 91 90 89 88 88 89 91 92 91 90 88 88 88 89 90 90 90 90 90 90 89 87 87 89 88 87 87 88
107 107 106 106 105 104 104 103 102 101 100 99 99 99 97 96 94 92 91 91 92 92 93 93 93 93 93 93 94 95 95 94 93 91 89 88 88 87 87 88 90 91 91 90 89 88 88 88 88 89 89 89 90 90 90 88 86 87 89 87 86 86 87
102 101 100 99 98 97 96 96 95 94 93 93 93 93 93 92 90 89 89 88 88 88 89 90 91 91 91 91 91 92 92 92 91 89 88 88 87 87 87 89 91 90 89 89 89 89 88 87 87 88 88 88 89 89 89 87 86 87 88 86 85 86 86
94 94 93 92 91 90 89 89 89 89 89 89 90 90 90 89 87 87 86 86 85 85 86 86 87 88 89 89 90 90 90 91 91 89 88 87 87 87 88 90 91 89 89 89 88 87 87 87 87 87 86 86 87 88 89 88 86 85 85 85 85 85 86
87 86 86 86 85 85 85 85 86 86 86 87 87 87 87 86 84 84 83 83 83 83 83 84 85 86 88 89 90 90 91 91 91 90 88 86 87 88 89 90 90 89 88 87 86 86 86 86 86 86 86 85 86 87 88 87 86 84 82 82 83 84 84
81 81 82 82 82 83 83 83 83 84 84 84 84 84 83 82 82 81 81 80 80 81 82 83 84 85 87 88 89 91 91 91 91 90 88 87 87 88 89 89 88 87 87 85 85 84 84 84 85 85 85 85 85 85 86 85 84 83 81 81 81 82 82
78 79 79 80 80 80 80 80 80 80 81 80 80 80 80 80 80 80 79 79 79 80 81 82 84 85 86 87 88 89 90 90 90 90 89 88 88 88 88 87 86 85 85 85 84 83 83 83 84 84 84 85 85 84 83 82 81 81 81 81 80 79 79
76 77 77 77 77 77 77 77 77 78 78 78 78 78 79 79 80 80 79 79 79 80 81 82 83 84 85 86 86 88 89 89 89 89 89 89 88 87 86 85 84 83 83 83 83 82 82 82 83 84 83 84 84 83 81 80 80 79 79 78 78 76 75
74 74 74 74 75 75 75 75 76 76 77 77 77 78 79 79 79 79 79 79 79 79 80 80 81 82 83 84 86 86 87 88 88 88 88 87 87 86 85 84 83 82 81 80 80 81 81 81 83 84 84 83 83 82 81 81 80 78 76 75 74 73 70
71 71 71 72 73 74 74 75 75 76 76 76 77 78 78 78 78 78 78 78 78 78 79 79 80 81 83 84 85 85 86 85 86 86 86 86 85 84 83 83 81 80 79 78 78 78 78 79 81 82 82 82 82 82 81 81 80 77 75 73 71 69 68
70 70 70 71 72 73 74 75 75 75 76 76 76 77 77 77 77 77 77 77 77 78 78 79 80 81 82 82 83 84 84 84 84 84 84 85 84 83 82 82 81 79 78 77 77 76 76 76 77 77 78 79 80 80 80 81 80 77 74 72 70 68 68
70 70 70 71 72 72 73 74 74 75 75 75 75 75 75 76 76 76 76 77 77 77 78 78 79 80 80 80 80 81 81 82 82 82 83 83 84 83 82 80 79 78 77 76 75 75 73 73 73 73 74 76 77 78 79 79 78 76 74 72 70 68 69
70 70 70 70 71 71 71 72 73 74 74 74 74 74 74 74 75 76 77 77 77 76 76 76 77 77 78 79 79 79 80 80 81 81 81 82 82 83 82 80 78 76 75 74 73 72 71 70 70 70 71 73 74 75 76 77 76 75 73 72 69 68 69
69 69 69 69 69 69 70 70 72 73 74 73 73 73 73 73 74 75 76 76 76 75 74 74 75 76 76 77 77 78 78 79 79 79 79 80 80 80 80 80 78 76 74 72 71 70 69 69 68 69 69 70 71 72 73 73 74 73 71 70 68 67 67
66 66 67 67 67 68 68 69 70 72 73 74 73 73 72 72 72 73 74 74 74 74 73 74 74 74 74 74 74 75 75 76 77 76 76 77 77 77 77 78 77 76 74 71 68 68 68 68 68 68 68 68 68 68 69 70 71 71 70 69 67 66 66
65 65 65 65 65 66 67 69 70 71 72 72 72 72 71 72 73 73 72 72 72 72 72 73 73 73 73 72 72 71 72 72 73 74 74 74 74 74 74 74 75 74 73 70 67 66 66 66 66 66 66 66 66 67 67 68 69 69 69 68 67 66 66
63 63 64 64 64 65 66 67 68 69 69 69 69 69 70 71 73 73 72 71 71 70 70 70 71 71 72 71 71 70 69 69 69 70 71 71 71 71 71 71 71 71 70 69 67 66 65 65 65 65 65 66 66 66 66 67 68 68 68 67 66 66 65
61 61 62 63 63 64 65 65 66 66 66 66 67 67 68 69 71 72 72 71 70 69 68 67 66 67 68 69 69 69 68 68 67 67 67 67 68 68 69 69 69 68 68 67 67 65 64 64 64 64 64 65 65 64 64 65 66 67 67 66 66 65 64
64 62 61 61 61 62 63 63 64 64 65 65 65 65 65 66 67 68 69 69 68 67 66 66 65 65 65 65 66 66 66 66 66 66 66 66 66 66 66 67 67 66 66 66 65 64 64 63 63 63 63 63 63 63 63 63 64 65 66 66 65 64 63
65 64 63 61 60 60 61 62 63 63 63 63 63 62 62 63 63 63 64 65 65 65 64 63 63 63 63 63 63 64 64 65 65 65 66 66 66 66 66 66 65 65 64 63 62 62 62 62 62 62 62 62 62 62 62 63 63 64 65 65 65 64 63
Wind_Direction
278 278 277 277 277 277 277 277 277 277 277 277 277 277 276 275 275 274 274 274 274 274 275 275 275 276 276 276 276 276 276 276 276 276 276 276 276 276 276 276 276 276 275 275 275 275 275 275 275 274 274 273 273 273 272 272 271 270 270 269 268 267 266
279 279 278 278 278 278 277 277 277 277 277 277 277 277 276 276 275 275 274 274 274 274 274 275 275 275 276 276 277 277 277 278 278 278 278 278 278 278 278 278 278 277 277 276 276 275 275 274 274 273 273 273 272 272 272 272 271 271 270 270 269 268 267
279 279 279 279 278 278 278 277 277 277 277 277 277 277 276 276 276 275 275 275 274 274 274 275 275 275 276 276 277 277 278 278 278 279 279 279 279 279 279 279 279 278 278 277 276 275 275 274 273 272 272 272 272 271 271 271 270 270 270 269 269 268 268
279 279 279 279 279 278 278 278 277 277 277 277 277 276 276 276 276 275 275 275 275 274 275 275 275 276 276 276 277 278 278 278 279 279 279 280 280 280 280 279 279 279 278 277 277 276 275 274 273 273 272 272 271 271 270 270 270 269 269 269 268 268 268
279 279 279 279 279 279 278 278 278 277 277 277 276 276 276 276 275 275 275 275 275 275 275 275 275 276 276 277 277 278 278 279 279 279 280 280 280 280 280 279 279 279 278 277 277 276 276 275 275 274 273 272 271 270 270 269 269 269 268 268 268 268 268
279 279 279 279 279 279 279 278 278 278 277 277 276 276 276 275 275 275 275 275 275 275 275 275 276 276 276 277 278 278 278 279 279 279 280 280 280 280 279 279 279 278 278 277 277 276 276 276 275 274 273 272 271 271 270 269 269 268 268 268 268 268 268
280 280 280 280 279 279 279 278 278 278 277 277 277 276 276 276 275 275 275 275 275 275 276 276 276 277 277 278 278 278 279 279 279 279 279 280 279 279 279 279 278 278 277 277 277 277 276 276 275 274 273 272 271 271 270 269 268 268 269 268 268 268 268
280 280 280 280 279 279 279 279 278 278 278 277 277 277 277 276 276 276 276 276 276 276 277 277 277 278 278 278 278 278 279 279 279 279 279 279 279 279 278 278 278 277 277 277 277 277 276 276 275 275 274 273 272 271 270 269 269 269 269 269 268 268 268
280 279 279 279 279 279 279 279 279 279 278 278 278 278 278 277 277 277 277 277 277 278 278 278 278 278 278 279 279 279 279 279 279 279 279 278 278 278 278 277 277 277 278 278 277 277 276 276 275 275 274 273 272 272 271 270 270 269 269 268 268 267 267
279 279 279 279 279 279 279 279 279 279 279 279 279 279 279 279 278 278 279 279 279 279 279 279 279 279 279 279 279 279 279 279 279 278 278 278 278 278 277 278 278 278 278 278 277 277 276 276 276 275 274 273 273 272 272 271 270 270 269 268 267 267 267
279 279 279 279 279 279 279 279 279 279 279 279 279 279 279 279 279 280 280 280 280 280 280 280 280 280 279 279 279 279 278 278 278 278 277 277 277 277 278 278 278 278 278 277 277 277 276 276 275 275 274 273 273 272 272 271 271 270 269 268 268 267 268
278 279 279 279 279 279 279 280 280 280 280 280 280 280 280 280 280 280 281 280 280 280 280 280 280 279 279 279 278 278 278 277 277 277 277 277 277 277 277 278 278 278 277 277 277 277 276 276 275 274 273 273 272 272 272 272 271 270 269 269 269 269 268
279 279 279 279 280 280 280 280 280 280 280 281 281 281 281 281 281 281 281 280 280 280 280 279 279 279 278 278 278 277 277 277 277 277 277 277 277 277 277 278 277 277 277 277 276 276 275 275 274 273 273 273 272 272 272 272 271 270 270 270 270 269 268
279 280 280 280 280 280 280 280 280 281 281 281 281 280 280 280 280 280 280 280 280 279 279 278 278 278 278 277 277 277 277 277 277 277 276 277 277 277 278 278 278 277 277 276 276 275 275 274 274 274 273 273 272 272 272 271 271 271 271 270 270 269 268
280 280 280 280 280 281 281 281 280 280 280 280 280 280 280 280 280 280 280 279 279 279 278 278 278 278 278 277 277 277 277 277 276 276 276 277 277 278 278 278 278 277 276 276 275 275 274 274 274 274 274 273 273 272 272 271 271 271 271 270 269 269 269
281 281 281 281 281 281 281 280 280 280 280 280 280 280 280 280 279 279 279 279 279 278 278 278 278 278 277 277 277 277 277 276 276 276 277 277 278 278 278 278 277 277 276 275 275 275 275 275 274 274 273 273 273 273 272 272 272 272 271 270 269 269 269
281 281 281 281 281 280 280 280 280 279 279 279 279 279 279 279 279 279 279 278 278 278 278 278 278 277 277 277 277 277 276 276 276 277 278 278 278 278 278 278 277 276 276 275 275 275 275 275 274 274 274 274 274 273 272 272 272 271 270 270 270 269 269
281 281 280 280 280 280 279 279 279 279 279 279 279 279 279 279 279 279 278 278 278 278 278 279 278 278 278 277 277 277 277 277 278 278 278 279 278 279 279 278 276 276 276 276 276 276 275 275 275 275 275 274 274 273 273 272 272 271 270 270 269 269 268
280 280 280 279 279 279 279 279 280 280 280 279 279 279 279 279 279 279 279 279 279 279 279 279 279 279 279 278 278 278 278 279 279 279 279 279 279 279 278 277 276 276 276 276 276 276 276 276 275 274 274 274 274 273 273 272 271 271 271 271 270 270 269
280 280 280 280 280 280 280 280 280 280 280 280 280 279 280 280 280 281 280 280 280 280 279 279 279 279 280 280 279 279 279 279 279 279 279 279 279 278 277 276 276 276 276 276 276 277 276 276 275 274 274 274 273 273 273 272 271 271 271 272 272 271 271
281 281 281 281 281 281 281 280 280 280 280 280 280 281 281 281 282 281 281 281 280 280 280 280 280 280 280 280 280 280 280 280 280 280 279 279 278 278 277 276 277 277 277 277 277 276 276 276 275 275 275 274 273 273 273 273 272 271 271 271 270 270 270
282 282 281 281 281 281 281 281 281 281 281 281 282 282 282 282 282 281 281 281 281 280 280 280 280 280 279 280 280 280 280 280 280 280 280 279 278 277 277 277 277 278 278 277 277 276 276 276 275 275 274 274 273 272 271 271 272 272 271 270 268 268 268
282 282 282 282 282 282 282 282 282 282 282 282 282 282 282 282 282 281 281 281 280 280 280 279 279 279 279 279 279 279 280 280 280 280 280 279 279 278 278 278 278 278 278 278 278 277 277 276 275 275 274 273 273 272 271 271 271 270 270 269 268 267 267
283 283 283 284 284 284 284 284 283 283 283 283 283 282 282 282 281 281 281 281 280 280 279 279 279 279 279 279 279 279 280 280 280 280 280 279 279 279 279 279 278 278 278 278 278 278 278 277 277 276 275 274 274 273 273 271 270 268 268 267 267 266 266
285 285 285 285 285 285 284 284 284 283 283 283 283 282 282 281 282 282 282 281 281 281 280 280 280 280 280 280 280 280 280 280 280 279 279 279 279 279 279 278 278 278 277 277 278 278 278 278 278 277 277 277 276 276 275 273 271 270 268 267 267 266 265
286 286 286 286 285 285 285 284 284 283 283 283 283 282 282 282 283 283 283 282 282 282 282 282 282 281 281 281 280 280 279 279 279 279 279 279 279 279 279 279 278 278 277 277 276 276 275 275 275 276 277 277 277 276 275 274 273 272 271 270 269 269 268
286 286 286 285 285 285 285 284 284 284 284 284 284 284 284 284 284 284 284 284 283 283 283 283 282 281 280 280 280 280 280 280 280 280 280 280 280 279 279 279 278 278 277 276 275 274 273 273 273 273 274 274 275 275 274 274 273 273 273 272 272 271 270
286 286 286 286 286 286 286 286 286 285 285 285 285 285 285 285 285 285 285 285 284 284 283 282 282 281 280 280 280 280 281 281 281 281 281 281 281 280 280 279 278 278 277 276 275 274 273 273 272 272 272 272 272 272 272 273 273 273 273 273 272 271 270
287 287 287 287 287 287 287 287 287 286 286 286 286 286 286 286 287 286 286 285 284 283 282 282 282 282 282 282 282 282 281 281 281 281 281 281 281 281 280 280 279 278 277 276 276 275 274 273 272 271 271 270 270 270 271 271 272 272 272 271 271 270 269
288 288 288 288 288 288 288 287 287 287 287 287 287 287 287 287 286 286 285 284 284 283 283 283 282 282 282 282 282 281 281 281 280 280 280 280 280 280 280 280 280 279 277 277 277 276 275 274 272 271 270 269 269 270 270 270 271 270 270 269 269 268 267
288 288 288 288 289 289 289 288 288 288 288 289 289 288 288 287 286 285 284 284 285 286 285 284 283 282 282 281 281 281 280 280 280 280 279 279 279 279 279 280 280 279 278 278 277 276 275 274 273 272 271 270 270 269 269 270 270 270 269 269 268 267 266
290 289 289 290 289 289 289 289 289 288 288 289 289 289 289 289 287 286 286 287 286 286 286 285 285 284 283 282 281 280 280 280 280 280 279 279 279 278 278 278 278 279 279 279 277 276 274 274 273 273 272 271 270 270 270 269 270 269 269 269 268 267 266
291 291 291 291 291 290 289 289 289 288 288 289 289 290 290 290 289 289 289 288 287 286 285 285 285 285 285 284 283 282 281 280 279 279 279 279 279 279 278 278 278 278 278 278 277 276 275 274 273 272 271 271 270 270 270 270 270 269 269 268 268 267 266
292 292 292 292 291 291 290 290 289 289 290 290 290 290 290 289 289 289 289 288 288 287 286 285 284 284 284 284 284 284 283 282 281 280 279 279 278 278 278 278 278 278 277 277 276 276 275 274 273 272 271 271 270 270 269 269 269 269 269 268 267 267 266
296 295 293 292 292 292 291 291 291 291 291 291 291 290 289 289 288 288 289 289 289 288 288 287 287 286 285 284 284 284 284 284 283 282 281 281 279 278 278 277 277 277 277 276 276 275 274 273 272 272 271 271 270 270 269 269 268 268 268 268 268 267 266
297 297 297 296 296 295 294 294 294 293 293 292 291 290 290 289 289 289 289 289 289 289 288 288 288 287 287 286 286 285 284 284 284 283 283 282 282 281 280 279 278 277 275 275 274 274 273 272 271 270 270 269 269 269 269 268 268 268 268 268 268 267 267